THORAD AGENA D DEB, 42536

Orbit data source: Space-Track

THORAD AGENA D DEB, 42536 is space debris in SSO originally from a launch on Wed, 08 Apr 1970 UTC launched from the Air Force Western Test Range (AFWTR). Debris objects in space refer to the collection of defunct objects orbiting the Earth. Examples of debris include non-operational satellites, rocket bodies, and fragments generated from explosions, collisions, or faulty payload assembly.

Loading next visibility...
Identifier
42536, 1970-025SS
Orbit
SSO
Country
Flag of USUS
Related business
Manufacturer
Unknown
Mission
Spacecraft
Bus & Motor
Unknown
Mass
Unknown
Launch date (UTC)
1970-04-08 (56 years ago)
Launch vehicle
Unknown
Launch site
Air Force Western Test Range (AFWTR)
Object type
Payload
Rocket body
Debris
Shape & HBR
Unknown shape, 0.1 m
Radar Cross Section
Small (<0.1 m²)

Expand to show TLE details & history
Last TLE update: 2 days ago

TLE from 2 days ago
0 THORAD AGENA D DEB
1 42536U 70025SS  26034.27588796  .00007503  00000-0  40514-2 0  9992
2 42536  99.4967 333.3016 0064278 350.7797   9.2187 14.11885905621604
Epoch: 2026-02-03T06:37Z
TLE epoch observation values (Epoch: 2026-02-03T06:37:16.719Z)
Latitude
-0.00009°
Longitude
100.5228°
Altitude
809.922 km
Speed
7.472 km/s
True Right ascension
22h 13m 12s
True Declination
0° 00' 00"
Sunlit
Object was in daylight at epoch
Visualization orbit readout
Latitude
Unknown
Longitude
Unknown
Altitude
Unknown
Speed
Unknown
Apparent Right ascension
Unknown
Apparent Declination
Unknown
Sunlit
N/A
Visualization observer readout
Local Sidereal Time
21:26:05
Azimuth
Unknown
Elevation
Unknown
Doppler factor
Unknown
Orbital elements
Apogee altitude
896.596 km
Perigee altitude
803.672 km
Semi-major axis
7,228.271 km
Eccentricity
0.00643
Inclination
99.4967°
RAAN
333.3016°
Arg. of periapsis
350.7797°
True anomaly
9.33764°
Mean anomaly
9.2187°
Eccentric anomaly
9.27808°
Mean motion
3.53176 °/min
Orbital period
101.93 mins
BSTAR
0.0040514
Loading maneuver chart data...
Computing Atmospheric mass density...

Documentation

Showing up to 5 results
|